Location: Unspecified
(0.0000°N, 0.0000°E)
Time: 18:00:38
(UTC+00:00)

STARLINK 1065 - Pass Details

Date: 23 January 2020
Orbit: 548 x 551 km, 53.0° (Epoch: 17 January)

Event Time Altitude Azimuth Distance (km) Brightness Sun altitude
Exits shadow 05:28:01 12° 265° (W) 1,718 5.6 -10.3°
Maximum altitude 05:30:27 18° 304° (NW) 1,387 5.1 -9.7°
Drops below altitude 10° 05:33:16 10° 348° (NNW) 1,807 5.9 -9.0°
Sets 05:36:04 0° 8° (N) 2,696 7.0 -8.4°
